Date,TemperatureHighF,TemperatureAvgF,TemperatureLowF,DewpointHighF,DewpointAvgF,DewpointLowF,HumidityHigh,HumidityAvg,HumidityLow,PressureMaxIn,PressureMinIn,WindSpeedMaxMPH,WindSpeedAvgMPH,GustSpeedMaxMPH,PrecipitationSumIn
2013-1-1,52.2,34.4,35.0,41.0,14.2,-99.9,93,72,60,30.34,30.27,8,3,15,0.00
2013-1-2,57.0,45.5,35.7,46.0,37.9,32.0,88,76,53,30.29,30.17,8,3,11,0.00
2013-1-3,57.6,47.5,38.8,46.0,39.9,32.0,89,75,61,30.32,30.18,11,2,11,0.00
2013-1-4,57.4,43.8,40.4,51.0,33.9,-99.9,93,81,74,30.34,30.24,7,2,10,0.00
2013-1-5,51.9,47.3,42.7,47.0,43.7,39.0,94,87,78,30.28,30.08,19,5,25,0.53
2013-1-6,54.2,46.8,41.1,48.0,43.9,40.0,95,89,77,30.27,30.15,14,3,16,0.02
2013-1-7,59.7,50.2,42.2,53.0,46.7,40.0,95,88,77,30.31,30.21,13,4,18,0.00
2013-1-8,57.0,46.4,42.9,53.0,39.0,-99.9,96,87,82,30.30,30.18,11,2,17,0.01
2013-1-9,53.3,47.7,41.0,51.0,44.7,37.0,96,89,74,30.21,30.08,18,4,22,0.06
2013-1-10,47.2,28.6,34.8,39.0,-2.9,-99.9,95,61,68,30.30,30.15,15,3,21,0.03
2013-1-11,49.2,40.8,33.7,43.0,37.1,32.0,95,87,76,30.32,30.21,12,3,17,0.00
2013-1-12,52.1,39.1,33.3,38.0,25.8,-99.9,92,71,50,30.31,30.19,9,3,18,0.00
2013-1-13,52.1,41.1,33.6,42.0,34.7,30.0,87,78,63,30.31,30.25,10,4,13,0.00
2013-1-14,53.8,42.6,34.4,40.0,33.9,27.0,89,72,48,30.45,30.30,8,4,13,0.00
2013-1-15,54.4,43.8,36.3,46.0,38.8,33.0,93,83,66,30.53,30.44,6,3,9,0.00
2013-1-16,54.7,35.2,36.9,45.0,14.5,-99.9,92,72,57,30.49,30.32,7,3,9,0.00
2013-1-17,52.1,33.5,37.5,47.0,11.6,-99.9,95,73,81,30.33,30.22,7,2,9,0.02
2013-1-18,53.2,44.8,37.4,49.0,41.6,35.0,96,88,76,30.27,30.19,6,2,8,0.00
2013-1-19,59.1,49.0,38.4,51.0,41.4,32.0,89,75,51,30.28,30.20,9,2,16,0.01
2013-1-20,60.7,50.5,44.3,49.0,39.1,29.0,90,66,42,30.26,30.17,10,3,15,0.00
2013-1-21,60.0,50.8,40.7,47.0,39.2,31.0,84,65,49,30.21,30.10,12,3,13,0.00
2013-1-22,69.8,54.5,41.6,47.0,36.0,28.0,77,52,24,30.12,30.01,8,2,15,0.00
2013-1-23,61.6,55.3,49.9,51.0,42.5,27.0,92,67,27,30.11,29.95,22,6,24,0.34
2013-1-24,59.1,53.7,50.8,55.0,51.2,49.0,95,91,84,30.24,30.10,7,1,12,0.00
2013-1-25,58.2,53.2,48.5,56.0,51.3,47.0,95,93,85,30.24,30.12,5,1,11,0.00
2013-1-26,54.8,49.6,42.8,51.0,44.5,40.0,95,83,60,30.15,30.07,15,4,22,0.02
2013-1-27,52.4,44.8,36.4,43.0,39.0,34.0,93,81,65,30.27,30.15,16,4,20,0.00
2013-1-28,50.1,30.8,39.0,46.0,-0.4,-99.9,95,63,79,30.40,30.25,13,4,25,0.00
2013-1-29,54.6,48.2,42.7,47.0,43.3,39.0,92,83,74,30.43,30.36,14,6,22,0.00
2013-1-30,58.2,48.1,40.2,49.0,43.4,38.0,95,84,64,30.40,30.32,6,2,10,0.00
2013-1-31,57.3,47.7,40.0,49.0,43.7,38.0,93,86,68,30.35,30.23,6,2,11,0.01
2013-2-1,57.3,30.0,43.7,48.0,-8.8,-99.9,92,55,72,30.27,30.17,10,2,12,0.00
2013-2-2,58.4,50.3,46.0,51.0,46.8,43.0,94,88,73,30.37,30.28,8,2,11,0.00
2013-2-3,58.3,36.1,41.6,50.0,9.5,-99.9,93,67,73,30.31,30.21,13,3,22,0.00
2013-2-4,54.9,46.8,39.8,50.0,44.2,38.0,95,90,81,30.23,30.14,10,2,12,0.00
2013-2-5,57.2,48.5,42.0,50.0,44.9,40.0,93,87,77,30.25,30.14,11,3,15,0.00
2013-2-6,54.0,42.0,39.6,48.0,29.2,-99.9,95,79,77,30.26,30.19,13,4,20,0.01
2013-2-7,55.7,44.5,40.5,48.0,36.2,-99.9,95,84,66,30.20,30.05,12,3,16,0.33
2013-2-8,52.9,43.8,34.5,44.0,38.9,33.0,95,83,65,30.10,30.02,17,5,21,0.01
2013-2-9,57.1,45.4,34.3,42.0,36.7,31.0,89,73,46,30.15,30.09,7,3,11,0.00
2013-2-10,57.1,45.9,37.2,47.0,40.1,34.0,89,80,63,30.17,30.09,6,3,14,0.00
2013-2-11,58.0,48.4,42.1,49.0,41.9,35.0,92,79,61,30.27,30.14,9,3,14,0.00
2013-2-12,54.8,45.6,38.8,49.0,42.7,37.0,96,90,79,30.44,30.27,8,3,10,0.00
2013-2-13,56.6,47.6,38.8,49.0,43.4,36.0,94,86,73,30.41,30.26,12,2,16,0.01
2013-2-14,56.9,47.7,40.8,51.0,44.9,39.0,96,90,77,30.30,30.23,6,2,9,0.01
2013-2-15,66.5,54.2,44.3,51.0,43.6,39.0,95,69,43,30.32,30.24,8,2,13,0.00
2013-2-16,60.6,44.5,42.2,50.0,27.0,-99.9,94,69,65,30.29,30.13,9,3,16,0.00
2013-2-17,54.6,36.5,38.1,45.0,13.6,-99.9,94,67,59,30.14,30.04,14,4,16,0.01
2013-2-18,53.0,42.2,37.3,44.0,31.2,-99.9,93,78,63,30.08,30.01,17,4,22,0.00
2013-2-19,50.1,43.4,35.4,45.0,38.9,33.0,94,84,64,30.03,29.84,15,4,27,0.18
2013-2-20,53.9,34.6,34.1,41.0,9.1,-99.9,91,62,58,30.18,29.94,17,5,25,0.00
2013-2-21,52.0,31.0,37.9,42.0,-1.6,-99.9,92,59,65,30.25,30.16,12,4,19,0.00
2013-2-22,54.9,47.2,37.4,46.0,41.1,34.0,88,80,60,30.32,30.25,14,4,22,0.00
2013-2-23,52.5,47.3,39.8,45.0,37.9,35.0,90,71,57,30.36,30.28,19,7,28,0.01
2013-2-24,55.3,46.0,36.2,43.0,38.3,33.0,90,75,52,30.35,30.23,12,4,21,0.00
2013-2-25,55.8,47.7,38.2,47.0,40.7,35.0,90,77,59,30.34,30.26,17,6,22,0.00
2013-2-26,57.2,46.3,35.6,45.0,37.7,32.0,87,73,52,30.30,30.22,14,3,18,0.00
2013-2-27,59.8,48.7,38.8,48.0,41.8,34.0,92,78,52,30.43,30.29,11,3,21,0.00
2013-2-28,57.2,51.1,46.0,53.0,48.8,44.0,100,92,82,30.53,30.43,16,3,19,0.01
2013-3-1,59.4,50.8,43.4,53.0,47.8,42.0,100,90,75,30.50,30.31,7,1,9,0.01
2013-3-2,52.5,33.0,43.0,51.0,2.6,-99.9,100,68,90,30.31,30.13,7,1,11,0.00
2013-3-3,55.4,50.2,46.0,51.0,47.7,44.0,100,91,80,30.15,30.09,14,4,21,0.00
2013-3-4,54.0,46.5,38.0,47.0,42.6,38.0,100,87,72,30.20,30.11,10,3,12,0.01
2013-3-5,53.6,47.0,38.0,49.0,45.5,38.0,100,95,83,30.12,29.80,22,7,36,0.92
2013-3-6,57.9,49.3,41.8,50.0,45.2,39.0,97,86,72,30.11,29.82,19,6,29,0.19
2013-3-7,54.7,46.8,40.3,48.0,43.0,38.0,100,87,61,30.05,29.94,9,2,14,0.00
2013-3-8,56.0,47.3,39.2,47.0,41.8,36.0,90,81,70,30.13,29.93,13,4,25,0.00
2013-3-9,61.2,48.8,39.4,51.0,43.5,36.0,91,82,59,30.40,30.14,11,4,20,0.00
2013-3-10,60.8,49.7,41.9,51.0,44.5,38.0,93,83,65,30.41,30.31,10,3,15,0.00
2013-3-11,59.7,49.7,41.1,52.0,46.2,39.0,100,88,74,30.32,30.17,14,3,21,0.00
2013-3-12,59.4,49.5,41.3,52.0,45.8,40.0,95,87,73,30.23,30.15,9,2,14,0.01
2013-3-13,58.2,48.5,41.1,52.0,45.8,40.0,100,90,77,30.25,30.14,8,1,14,0.29
2013-3-14,63.2,49.2,43.2,58.0,44.5,-99.9,100,89,74,30.25,30.15,10,2,15,0.00
2013-3-15,61.6,51.7,45.2,54.0,48.3,42.0,100,88,76,30.22,30.11,15,3,20,0.00
2013-3-16,58.6,51.4,42.9,52.0,47.4,41.0,100,87,71,30.24,30.11,12,4,23,0.01
2013-3-17,56.5,48.8,41.6,50.0,43.9,39.0,99,83,66,30.24,30.14,13,4,20,0.02
2013-3-18,57.9,49.0,39.5,49.0,43.5,37.0,92,82,65,30.20,30.08,12,3,16,0.00
2013-3-19,55.7,49.0,44.5,51.0,44.1,37.0,94,83,71,30.20,30.11,8,1,12,0.11
2013-3-20,55.5,49.9,41.9,54.0,48.3,40.0,96,94,89,30.23,30.08,9,3,15,0.19
2013-3-21,56.4,47.0,36.7,44.0,40.5,35.0,100,79,60,30.23,30.11,15,4,24,0.01
2013-3-22,55.8,46.7,34.3,43.0,38.6,32.0,92,75,53,30.21,30.15,21,5,29,0.00
2013-3-23,59.8,44.3,38.9,47.0,32.2,-99.9,92,74,55,30.21,30.12,14,2,18,0.00
2013-3-24,56.3,48.0,39.5,49.0,43.1,37.0,93,83,73,30.15,30.03,16,3,21,0.00
2013-3-25,53.2,35.7,39.5,45.0,12.4,-99.9,93,70,75,30.09,30.01,14,5,19,0.03
2013-3-26,60.3,48.6,40.2,51.0,45.2,39.0,100,88,69,30.07,30.02,7,1,8,0.01
2013-3-27,59.0,51.4,46.5,56.0,49.5,44.0,100,93,83,30.07,29.99,7,2,12,0.05
2013-3-28,59.7,52.6,48.9,55.0,50.4,48.0,96,92,82,30.16,30.06,5,2,9,0.00
2013-3-29,64.1,53.8,47.6,55.0,50.4,47.0,96,88,70,30.16,30.07,7,2,9,0.00
2013-3-30,59.2,52.9,48.8,54.0,50.6,48.0,96,92,80,30.14,30.06,10,3,14,0.08
2013-3-31,63.4,48.4,51.4,58.0,35.9,-99.9,96,83,79,30.12,30.05,11,4,17,0.22
2013-4-1,65.1,55.7,48.3,57.0,52.1,47.0,100,88,69,30.22,30.09,6,2,9,0.01
2013-4-2,61.7,51.1,45.4,56.0,48.5,44.0,95,91,74,30.26,30.16,11,4,17,0.01
2013-4-3,58.4,50.1,44.2,52.0,47.3,43.0,96,90,77,30.20,30.05,6,2,10,0.00
2013-4-4,54.8,52.6,49.0,54.0,51.6,48.0,97,96,95,30.16,30.01,10,3,15,0.84
2013-4-5,62.3,55.5,51.9,59.0,53.6,51.0,97,93,80,30.25,30.17,5,2,8,0.04
2013-4-6,65.2,55.8,52.3,61.0,53.7,51.0,100,92,77,30.25,30.18,7,2,12,0.10
2013-4-7,60.0,54.5,47.0,58.0,51.8,44.0,100,91,77,30.22,29.92,16,5,31,0.32
2013-4-8,58.0,51.2,46.4,47.0,42.8,37.0,100,74,53,30.16,29.93,19,8,38,0.00
2013-4-9,56.4,28.2,42.6,47.0,-16.1,-99.9,90,48,71,30.22,30.16,16,4,22,0.00
2013-4-10,64.9,54.1,47.2,55.0,49.3,45.0,93,84,66,30.26,30.18,17,4,22,0.00
2013-4-11,60.8,52.2,44.5,50.0,46.1,42.0,94,80,64,30.20,29.95,19,6,30,0.00
2013-4-12,58.2,50.5,43.6,50.0,45.5,41.0,94,83,73,29.98,29.93,16,6,24,0.00
2013-4-13,58.6,51.6,45.8,48.0,43.3,38.0,89,74,56,30.03,29.95,24,8,28,0.00
2013-4-14,54.1,49.0,44.6,44.0,40.6,34.0,91,73,64,30.03,29.95,15,6,23,0.00
2013-4-15,54.6,48.0,42.5,42.0,38.9,36.0,89,71,55,30.09,29.96,20,7,35,0.00
2013-4-16,60.3,49.3,35.9,44.0,39.2,33.0,90,69,49,30.25,30.09,17,6,23,0.00
2013-4-17,60.0,50.7,39.7,45.0,41.9,37.0,89,73,53,30.36,30.26,14,4,20,0.00
2013-4-18,62.1,52.2,43.8,49.0,44.8,40.0,89,77,59,30.33,30.25,18,4,19,0.00
2013-4-19,65.9,53.6,43.9,53.0,47.4,42.0,95,80,58,30.30,30.20,15,4,23,0.00
2013-4-20,59.7,52.6,44.0,51.0,46.7,41.0,91,81,68,30.23,30.07,17,6,21,0.00
2013-4-21,68.7,56.0,44.9,52.0,47.7,42.0,91,75,56,30.11,30.00,11,3,13,0.00
2013-4-22,71.5,58.8,47.7,55.0,49.2,45.0,91,72,52,30.04,29.90,7,1,8,0.00
2013-4-23,69.5,54.1,45.0,53.0,47.7,43.0,95,81,50,30.03,29.91,7,2,8,0.00
2013-4-24,55.3,49.1,44.3,50.0,46.4,43.0,97,91,81,30.03,29.90,8,2,11,0.00
2013-4-25,63.0,53.9,48.5,53.0,48.5,46.0,90,82,66,30.20,30.03,6,2,8,0.00
2013-4-26,58.0,51.8,43.6,51.0,47.7,42.0,94,86,74,30.31,30.18,9,3,16,0.00
2013-4-27,57.8,50.1,43.4,51.0,47.0,42.0,96,89,79,30.30,30.14,10,3,17,0.00
2013-4-28,63.2,35.1,42.3,56.0,2.0,-99.9,100,61,67,30.13,29.96,7,2,13,0.01
2013-4-29,69.1,57.1,49.8,55.0,49.2,44.0,87,75,59,29.98,29.91,18,6,27,0.00
2013-4-30,64.5,55.8,45.8,48.0,44.7,41.0,84,68,48,29.96,29.89,15,7,23,0.00
2013-5-1,77.3,58.1,47.1,51.0,43.0,33.0,87,60,21,30.15,29.94,8,2,10,0.00
2013-5-2,77.4,59.7,45.2,53.0,45.0,33.0,90,63,21,30.22,30.14,7,2,10,0.00
2013-5-3,70.5,55.6,43.8,53.0,47.3,39.0,92,75,53,30.14,29.85,6,2,8,0.00
2013-5-4,69.2,55.9,45.2,56.0,50.7,43.0,94,83,59,29.86,29.62,16,5,23,0.00
2013-5-5,60.1,56.2,53.9,54.0,51.4,50.0,90,84,74,29.88,29.67,16,8,24,0.00
2013-5-6,71.6,60.5,52.6,57.0,52.6,49.0,88,76,57,30.03,29.86,10,3,16,0.00
2013-5-7,68.2,56.8,49.9,57.0,52.1,47.0,94,85,64,30.11,30.02,8,2,10,0.00
2013-5-8,59.6,39.3,49.6,54.0,11.0,-99.9,100,68,77,30.20,30.09,14,3,23,0.00
2013-5-9,59.1,53.0,46.0,53.0,49.7,44.0,100,89,78,30.24,30.17,15,5,20,0.00
2013-5-10,63.2,53.2,46.7,57.0,50.1,45.0,100,90,73,30.23,30.17,16,4,23,0.00
2013-5-11,62.6,52.5,45.4,55.0,49.4,44.0,96,89,72,30.20,30.12,7,2,12,0.00
2013-5-12,64.5,55.6,47.5,56.0,51.7,46.0,96,87,72,30.21,30.09,15,4,22,0.00
2013-5-13,63.6,56.1,48.6,56.0,51.5,47.0,96,85,69,30.15,30.04,15,5,23,0.00
2013-5-14,67.3,56.2,48.9,53.0,49.3,46.0,92,79,53,30.08,30.00,15,5,24,0.00
2013-5-15,63.5,54.8,47.1,53.0,48.5,43.0,96,80,56,30.12,30.06,15,4,21,0.00
2013-5-16,59.9,55.7,52.1,56.0,52.6,48.0,100,89,77,30.10,30.04,16,5,22,0.00
2013-5-17,61.3,54.0,45.1,53.0,48.3,43.0,99,82,59,30.16,30.04,16,5,25,0.00
2013-5-18,63.9,56.2,46.4,54.0,49.3,44.0,100,79,63,30.23,30.14,18,6,23,0.00
2013-5-19,66.6,56.2,47.3,54.0,50.2,46.0,100,81,60,30.21,30.07,16,3,21,0.00
2013-5-20,68.3,56.7,47.6,54.0,50.1,45.0,95,80,60,30.08,29.99,17,4,23,0.00
2013-5-21,62.7,53.8,47.7,51.0,43.1,-99.9,96,72,58,30.15,30.01,19,6,26,0.00
2013-5-22,59.5,52.5,45.8,45.0,40.5,35.0,81,64,52,30.14,30.03,12,6,28,0.00
2013-5-23,57.3,34.2,46.0,46.0,-2.9,-99.9,86,52,61,30.11,30.01,21,6,25,0.00
2013-5-24,62.3,43.2,41.6,50.0,21.9,-99.9,91,66,60,30.09,30.03,16,5,23,0.00
2013-5-25,62.0,53.4,44.3,52.0,47.5,41.0,93,81,68,30.13,30.03,16,4,23,0.00
2013-5-26,62.1,56.1,50.8,56.0,52.6,48.0,100,88,75,30.20,30.11,11,3,20,0.00
2013-5-27,56.6,44.5,49.9,55.0,26.4,-99.9,100,78,86,30.20,30.05,5,1,7,0.78
2013-5-28,61.2,53.4,50.6,61.0,50.2,-99.9,100,96,90,30.08,29.99,14,2,18,0.05
2013-5-29,64.7,56.7,50.1,62.0,54.1,48.0,100,92,67,30.07,29.98,16,4,21,0.02
2013-5-30,62.1,38.2,46.2,53.0,7.5,-99.9,100,62,68,30.09,30.03,17,4,23,0.00
2013-5-31,66.9,56.0,47.0,54.0,47.7,-99.9,92,76,62,30.09,30.02,20,-7,22,0.00
2013-6-1,69.2,58.4,49.8,54.0,49.2,45.0,85,72,51,30.04,29.90,16,6,25,0.00
2013-6-2,63.9,57.2,50.5,56.0,52.3,49.0,99,84,72,29.89,29.70,13,5,21,0.00
2013-6-3,62.9,54.3,48.5,54.0,50.6,47.0,100,88,72,29.95,29.76,9,2,11,0.00
2013-6-4,58.4,54.0,51.0,58.0,53.8,49.0,100,99,91,30.04,29.92,8,2,14,0.00
2013-6-5,66.2,56.7,50.6,56.0,51.8,49.0,100,85,67,30.07,30.00,6,2,10,0.01
2013-6-6,65.8,55.5,49.7,55.0,51.2,48.0,95,86,66,30.02,29.89,12,3,17,0.01
2013-6-7,67.2,56.3,49.6,56.0,51.5,48.0,95,85,65,29.94,29.79,6,2,8,0.01
2013-6-8,72.5,59.8,51.3,58.0,53.7,50.0,100,82,57,29.90,29.79,16,4,20,0.00
2013-6-9,70.0,59.2,53.2,59.0,54.6,52.0,94,85,65,29.96,29.89,7,3,12,0.00
2013-6-10,65.6,57.8,53.0,60.0,54.3,52.0,96,88,73,30.04,29.89,5,1,7,0.15
2013-6-11,67.2,58.6,51.9,57.0,52.0,47.0,93,79,64,30.06,29.97,17,5,23,0.00
2013-6-12,64.9,56.1,45.5,52.0,48.3,43.0,92,76,60,30.10,29.99,21,6,24,0.00
2013-6-13,66.1,56.3,47.8,53.0,48.9,44.0,87,76,63,30.18,30.09,18,6,24,0.00
2013-6-14,66.0,56.9,47.7,54.0,50.4,45.0,93,79,63,30.09,29.89,14,3,18,0.00
2013-6-15,65.3,54.0,45.1,55.0,49.6,43.0,95,85,67,30.07,29.89,23,6,26,0.00
2013-6-16,64.4,55.5,46.2,55.0,50.1,44.0,95,83,65,30.16,30.06,15,6,23,0.01
2013-6-17,65.4,57.4,48.6,57.0,52.8,46.0,94,85,74,30.17,30.10,18,5,22,0.00
2013-6-18,64.3,56.7,49.9,57.0,52.1,48.0,94,85,70,30.11,30.06,16,5,22,0.01
2013-6-19,65.5,57.1,46.9,55.0,50.2,45.0,100,79,60,30.14,30.09,16,4,20,0.00
2013-6-20,64.6,56.5,46.1,53.0,49.4,44.0,92,78,60,30.13,30.04,19,6,24,0.00
2013-6-21,63.3,56.0,47.8,54.0,50.3,45.0,94,81,68,30.05,30.00,21,5,29,0.00
2013-6-22,69.0,59.2,49.2,58.0,51.8,45.0,93,77,49,30.01,29.93,20,6,25,0.00
2013-6-23,60.5,56.3,53.5,59.0,55.3,52.0,100,96,91,29.94,29.87,11,2,14,0.10
2013-6-24,56.5,54.4,52.1,56.0,53.5,51.0,100,96,95,29.94,29.85,9,3,14,0.96
2013-6-25,58.4,57.2,55.8,58.0,56.5,55.0,98,97,97,30.02,29.91,9,4,15,2.06
2013-6-26,73.4,61.9,56.6,66.0,59.2,56.0,98,91,70,30.13,30.01,7,3,9,0.12
2013-6-27,71.1,61.8,53.1,62.0,58.1,53.0,100,88,71,30.18,30.08,15,3,18,0.00
2013-6-28,73.9,63.8,53.6,62.0,57.9,52.0,100,82,64,30.09,29.98,14,4,27,0.00
2013-6-29,79.0,65.6,55.0,61.0,56.8,53.0,94,75,52,29.98,29.89,16,5,24,0.00
2013-6-30,68.8,61.0,52.4,61.0,56.1,51.0,100,84,73,29.91,29.84,20,5,26,0.00
2013-7-1,77.9,62.0,51.0,61.0,55.5,49.0,96,81,52,29.90,29.86,16,3,21,0.00
2013-7-2,71.7,59.3,53.5,60.0,55.7,52.0,100,88,63,29.98,29.86,14,2,17,0.00
2013-7-3,71.0,58.3,53.7,61.0,54.7,52.0,96,88,65,29.98,29.82,5,1,9,0.03
2013-7-4,73.9,66.6,55.5,60.0,56.7,52.0,90,72,55,29.86,29.77,14,4,19,0.03
2013-7-5,61.3,59.5,58.8,54.0,53.3,53.0,81,79,76,29.79,29.79,10,8,21,0.00
2013-8-9,60.4,58.0,54.8,60.0,58.0,55.0,100,100,100,30.04,30.00,5,1,8,0.01
2013-8-10,69.2,60.4,52.7,59.0,55.7,51.0,100,85,69,30.11,30.04,8,2,14,0.00
2013-8-11,63.8,56.6,50.4,58.0,54.0,49.0,100,91,77,30.08,29.98,15,2,18,0.00
2013-8-12,66.5,56.3,49.8,58.0,53.1,49.0,100,89,71,30.07,29.98,9,2,14,0.00
2013-8-13,68.3,58.0,48.5,58.0,53.4,49.0,100,86,65,30.05,29.97,12,3,21,0.00
2013-8-14,69.9,60.6,48.7,62.0,56.3,47.0,99,86,72,30.02,29.96,19,5,23,0.00
2013-8-15,73.1,64.3,56.6,65.0,60.5,55.0,97,88,75,30.01,29.96,13,3,17,0.01
2013-8-16,69.1,61.9,54.4,69.0,58.6,53.0,100,89,74,30.05,29.97,14,4,21,0.00
2013-8-17,69.0,61.2,53.3,61.0,57.2,52.0,100,87,66,30.03,29.91,20,4,26,0.00
2013-8-18,68.6,59.5,51.5,57.0,54.2,50.0,96,83,64,29.95,29.83,5,2,7,0.01
2013-8-19,65.9,58.3,53.1,59.0,55.3,51.0,96,89,78,29.99,29.84,5,1,8,0.00
2013-8-20,66.9,59.3,54.2,60.0,56.7,53.0,97,91,77,29.95,29.88,8,3,12,0.00
2013-8-21,69.0,61.1,56.4,62.0,56.8,55.0,100,86,69,30.00,29.94,6,2,8,0.00
2013-8-22,71.3,61.1,56.2,60.0,56.4,54.0,95,85,68,30.04,29.96,7,2,9,0.01
2013-8-23,65.2,58.2,51.2,60.0,54.4,50.0,95,87,76,29.97,29.88,15,4,22,0.00
2013-8-24,66.8,57.8,50.8,67.0,57.1,49.0,100,97,88,29.95,29.88,9,2,18,0.01
2013-8-25,70.7,61.1,54.6,63.0,57.2,53.0,95,87,74,30.01,29.93,4,1,6,0.00
2013-8-26,68.7,59.8,52.5,60.0,55.7,51.0,97,87,70,30.07,29.97,12,4,21,0.01
2013-8-27,72.1,60.4,51.7,61.0,56.5,50.0,100,87,66,29.97,29.89,15,4,22,0.00
2013-8-28,73.5,60.9,55.7,74.0,61.1,56.0,100,100,100,30.00,29.89,4,0,5,0.01
2013-8-29,73.6,65.7,59.8,65.0,61.9,59.0,100,88,71,30.13,30.02,8,3,15,0.02
2013-8-30,72.7,64.7,58.0,73.0,64.6,58.0,100,100,100,30.09,29.99,18,3,21,0.01
2013-8-31,66.1,60.1,53.9,66.0,57.7,51.0,100,92,81,30.02,29.94,16,4,19,0.00
2013-9-1,68.7,60.9,50.9,63.0,56.9,49.0,100,87,64,30.00,29.95,10,2,15,0.01
2013-9-2,75.4,65.2,57.5,75.0,65.1,58.0,100,100,93,30.01,29.95,6,1,14,0.01
2013-9-3,70.1,62.4,54.8,68.0,61.6,55.0,100,97,84,30.06,29.98,11,2,22,0.00
2013-9-4,71.8,63.1,56.3,68.0,62.3,56.0,100,97,83,30.09,30.00,14,3,20,0.01
2013-9-5,70.7,63.0,55.1,61.0,57.6,53.0,100,83,64,30.08,30.01,16,4,21,0.00
2013-9-6,80.1,65.2,52.7,59.0,55.2,51.0,94,72,46,30.07,29.89,9,2,16,0.01
2013-9-7,73.8,62.8,52.0,58.0,54.3,50.0,93,75,56,29.94,29.87,5,1,8,0.00
2013-9-8,66.7,57.4,50.6,58.0,53.6,49.0,96,88,72,29.94,29.84,7,2,10,0.00
2013-9-9,66.8,57.2,49.1,59.0,54.0,48.0,97,89,74,29.89,29.78,7,2,9,0.01
2013-9-10,63.1,57.9,53.5,60.0,56.4,52.0,97,94,86,29.94,29.79,9,3,15,0.01
2013-9-11,67.2,61.9,59.6,61.0,59.3,58.0,96,91,78,30.05,29.94,6,2,10,0.01
2013-9-12,67.3,61.6,54.3,61.0,58.3,52.0,94,89,77,30.03,29.94,16,3,17,0.00
2013-9-13,64.3,58.0,49.8,58.0,55.2,49.0,100,90,80,29.95,29.82,16,4,24,0.01
2013-9-14,63.8,59.2,53.7,58.0,55.9,52.0,100,89,80,29.86,29.79,17,6,23,0.01
2013-9-15,69.0,60.6,51.8,59.0,55.3,50.0,100,84,66,29.93,29.82,6,2,10,0.01
2013-9-16,70.8,60.5,51.6,60.0,55.0,50.0,96,83,65,29.94,29.86,18,4,24,0.00
2013-9-17,68.5,61.6,55.3,58.0,54.5,50.0,92,78,62,29.98,29.87,22,6,23,0.00
2013-9-18,68.4,58.4,50.2,55.0,50.8,47.0,91,77,59,29.98,29.90,15,4,22,0.00
2013-9-19,73.7,57.5,47.7,58.0,51.0,45.0,92,80,59,29.93,29.82,8,1,12,0.00
2013-9-20,71.9,58.5,50.4,61.0,54.2,45.0,96,86,66,29.89,29.82,8,2,12,0.21
2013-9-21,66.9,58.5,53.2,67.0,58.2,52.0,100,99,95,29.95,29.81,7,1,10,0.14
2013-9-22,66.0,58.5,50.7,66.0,57.9,51.0,100,98,82,30.08,29.96,10,2,17,0.01
2013-9-23,70.8,62.3,55.7,63.0,57.4,53.0,92,84,74,30.08,29.99,17,4,20,0.00
2013-9-24,68.5,60.2,54.3,60.0,56.0,51.0,100,87,65,30.07,30.00,12,3,22,0.00
2013-10-8,62.5,56.1,53.7,49.0,47.4,47.0,78,73,61,29.86,29.81,13,6,19,0.00
2013-10-9,67.2,55.4,48.7,47.0,45.7,43.0,82,71,46,29.82,29.71,15,4,19,0.00
2013-10-10,61.8,52.8,45.7,52.0,46.7,41.0,100,80,64,30.05,29.81,7,2,10,0.00
2013-10-11,62.1,50.4,44.0,52.0,46.8,42.0,95,88,68,30.15,30.04,8,2,13,0.01
2013-10-12,61.1,52.1,43.0,51.0,46.6,41.0,94,82,60,30.07,29.98,14,3,24,0.00
2013-10-13,62.5,52.5,45.6,53.0,47.7,44.0,97,85,69,30.11,30.00,7,2,8,0.01
2013-10-14,77.6,57.9,46.0,64.0,47.4,41.0,92,69,52,30.17,30.08,5,1,10,0.00
2013-10-15,83.8,59.0,44.6,53.0,44.0,38.0,78,61,29,30.09,30.02,7,2,10,0.00
2013-10-16,84.5,60.2,46.6,53.0,39.3,34.0,74,50,23,30.13,30.03,8,2,11,0.00
2013-10-17,58.9,54.9,51.1,36.0,35.7,35.0,55,49,43,30.11,30.08,4,2,13,0.00
2013-10-18,55.8,50.6,42.7,50.0,47.0,41.0,94,88,78,30.12,30.08,8,2,9,0.00
2013-10-19,56.7,48.1,41.1,53.0,46.2,40.0,100,93,81,30.15,30.08,7,1,10,0.01
2013-10-20,56.9,47.9,42.1,52.0,46.0,41.0,100,93,80,30.09,29.98,9,2,10,0.01
2013-10-21,56.2,47.6,42.4,56.0,47.1,41.0,100,98,94,30.07,29.99,4,1,7,0.01
2013-10-22,55.5,48.4,41.0,52.0,46.8,40.0,100,94,86,30.09,30.00,8,2,12,0.00
2013-10-23,54.5,47.7,40.6,51.0,46.3,40.0,100,95,84,30.03,29.98,8,1,12,0.01
2013-10-24,60.5,52.0,45.6,61.0,50.2,45.0,100,94,74,30.16,30.02,7,1,10,0.00
2013-10-25,62.6,53.2,46.0,53.0,48.6,44.0,93,84,70,30.24,30.14,9,2,14,0.00
2013-10-26,55.8,49.4,43.7,52.0,47.1,42.0,96,91,81,30.21,30.09,6,1,11,0.01
2013-10-27,57.5,50.4,42.3,53.0,47.2,41.0,100,89,74,30.09,29.75,17,5,24,0.01
2013-10-28,60.7,52.8,46.7,54.0,48.1,43.0,100,84,68,29.87,29.73,9,4,19,0.00
2013-10-29,60.2,50.8,43.0,51.0,46.6,41.0,94,86,70,30.11,29.88,9,2,10,0.00
2013-10-30,59.4,50.7,42.3,52.0,46.2,41.0,94,85,68,30.21,30.10,8,3,13,0.01
2013-10-31,62.7,52.5,42.8,52.0,46.4,40.0,92,80,61,30.23,30.14,7,2,12,0.00
2013-11-1,67.9,53.0,45.6,54.0,47.9,44.0,94,84,54,30.20,30.07,5,1,9,0.01
2013-11-2,61.5,52.8,44.0,56.0,47.3,41.0,95,82,64,30.09,30.00,14,4,22,0.01
2013-11-3,58.0,51.0,41.3,45.0,39.8,34.0,87,66,49,30.16,30.03,11,4,18,0.00
2013-11-4,62.7,49.9,38.8,46.0,40.8,35.0,89,73,48,30.16,30.01,9,2,15,0.00
2013-11-5,65.7,55.3,43.9,53.0,46.8,37.0,95,74,56,30.26,30.16,10,3,18,0.00
2013-11-6,67.6,56.2,47.9,56.0,50.1,45.0,100,81,57,30.30,30.20,3,0,8,0.00
2013-11-7,62.6,55.7,49.3,55.0,49.2,44.0,94,79,61,30.24,30.14,12,3,17,0.00
2013-11-8,59.5,52.5,45.8,56.0,49.2,44.0,95,88,78,30.15,30.02,14,3,21,0.01
2013-11-9,64.0,53.1,44.0,53.0,47.7,42.0,93,83,63,30.10,30.02,12,1,16,0.00
2013-11-10,61.2,53.6,46.9,53.0,49.8,45.0,94,87,74,30.17,30.05,10,3,16,0.00
2013-11-11,59.4,53.5,47.4,53.0,49.5,45.0,93,86,77,30.23,30.12,8,2,12,0.00
2013-11-12,66.3,57.6,51.2,55.0,51.5,49.0,94,81,64,30.32,30.22,8,2,12,0.00
2013-11-13,62.3,53.0,46.6,56.0,50.4,45.0,95,91,76,30.33,30.16,10,2,18,0.01
2013-11-14,59.8,52.6,46.7,57.0,50.5,45.0,100,92,81,30.17,29.98,9,3,15,0.01
2013-11-15,60.5,51.8,44.3,48.0,44.4,40.0,87,76,57,29.99,29.80,11,4,18,0.05
2013-11-16,58.9,50.4,43.1,52.0,45.7,38.0,99,84,73,29.99,29.85,13,4,19,0.00
2013-11-17,57.2,48.4,41.3,51.0,44.7,39.0,94,87,72,30.14,29.98,7,2,10,0.01
2013-11-18,58.9,49.9,41.8,51.0,46.4,40.0,93,88,74,30.19,30.12,7,2,11,0.21
2013-11-19,54.2,52.7,51.1,51.0,50.0,49.0,92,90,87,30.12,29.95,11,5,17,0.95
2013-11-20,54.8,52.4,47.9,50.0,46.6,40.0,86,80,75,29.97,29.91,8,2,15,0.08
2013-11-21,65.0,50.6,41.8,51.0,39.3,33.0,77,66,36,30.05,29.95,9,3,14,0.01
2013-11-22,74.9,55.1,41.2,41.0,29.1,6.0,72,42,7,30.09,29.95,12,4,19,0.00
2013-11-23,62.5,52.4,44.6,46.0,34.6,-99.9,80,55,34,30.14,30.00,10,3,14,0.00
2013-11-24,60.5,48.9,39.0,49.0,39.5,32.0,100,71,45,30.30,30.14,9,2,11,0.00
2013-11-25,60.0,49.7,41.4,48.0,41.3,34.0,90,73,60,30.37,30.29,6,1,10,0.00
2013-11-26,60.4,51.2,45.0,49.0,42.2,38.0,75,72,57,30.31,30.08,11,2,11,0.00
2013-11-27,64.8,53.0,43.0,51.0,43.7,35.0,89,71,49,30.07,29.87,8,2,11,0.00
2013-11-28,68.3,53.9,46.1,55.0,45.5,37.0,94,74,49,30.12,29.90,8,1,10,0.00
2013-11-29,61.4,51.4,43.9,52.0,42.0,36.0,74,70,56,30.26,30.12,8,2,12,0.00
2013-11-30,61.7,52.6,43.9,52.0,43.4,29.0,98,72,42,30.34,30.25,7,2,12,0.00
2013-12-1,62.4,53.6,46.7,53.0,39.5,17.0,93,61,27,30.39,30.29,8,2,12,0.00
2013-12-2,60.0,52.5,45.7,50.0,14.0,-46.0,69,30,1,30.30,30.03,12,3,17,0.11
2013-12-3,53.1,47.0,36.7,38.0,32.1,-12.0,72,59,7,30.03,29.93,14,5,24,0.00
2013-12-4,51.2,41.9,33.5,36.0,31.3,23.0,88,67,46,30.14,30.03,11,4,16,0.00
2013-12-5,51.1,39.5,32.1,35.0,29.0,23.0,82,67,49,30.21,30.14,10,3,15,0.00
2013-12-6,49.4,41.7,31.2,38.0,20.0,-12.0,73,51,8,30.21,29.97,20,5,26,0.33
2013-12-7,45.9,39.1,31.0,33.0,26.2,9.0,73,61,32,30.32,30.00,19,5,24,0.01
2013-12-8,48.5,37.5,31.4,31.0,26.2,23.0,73,65,43,30.38,30.30,14,5,16,0.00
2013-12-9,52.1,40.0,32.0,38.0,28.6,22.0,72,65,50,30.46,30.35,10,3,13,0.00
2013-12-10,51.9,41.8,33.2,42.0,31.3,23.0,73,67,52,30.45,30.25,11,4,16,0.00
2013-12-11,54.7,43.4,35.3,44.0,32.9,22.0,71,67,55,30.29,30.23,8,3,10,0.00
2013-12-12,56.1,46.2,38.8,46.0,32.4,15.0,72,60,29,30.30,30.23,10,3,12,0.00
2013-12-13,56.0,46.8,36.2,45.0,29.8,-5.0,72,56,11,30.38,30.29,9,2,14,0.00
2013-12-14,50.9,46.6,39.4,29.0,-7.7,-99.9,43,18,2,30.46,30.36,5,2,9,0.01
2013-12-15,51.2,43.8,36.0,28.0,-28.0,-99.9,42,11,1,30.42,30.28,6,1,9,0.01
2013-12-16,57.2,49.4,42.0,46.0,34.0,2.0,69,57,17,30.29,30.16,7,2,11,0.01
2013-12-17,58.2,48.9,43.2,46.0,1.2,-202.0,69,40,1,30.20,30.07,6,2,10,0.00
2013-12-18,55.0,47.2,38.5,41.0,21.1,-3.0,62,38,15,30.07,29.89,13,4,19,0.00
2013-12-19,54.8,48.0,39.2,41.0,36.0,29.0,70,64,53,30.02,29.82,14,5,28,0.00
2013-12-20,56.7,47.4,36.8,43.0,33.4,12.0,70,60,23,30.10,30.00,11,4,18,0.00
2013-12-21,56.0,49.8,45.2,41.0,-19.4,-99.9,58,19,2,30.14,30.06,14,4,21,0.00
2013-12-22,61.9,49.9,43.1,49.0,22.7,-50.0,95,43,1,30.33,30.14,7,1,9,0.00
2013-12-23,62.2,50.8,44.0,47.0,27.1,-99.9,66,49,3,30.46,30.32,7,-25,11,0.00
2013-12-24,57.4,51.3,44.1,46.0,-8.4,-202.0,65,31,2,30.36,30.25,4,1,7,0.01
2013-12-25,56.4,47.5,40.4,45.0,-13.8,-202.0,66,31,1,30.34,30.25,4,1,8,0.01
2013-12-26,59.3,49.9,41.5,46.0,35.3,15.0,68,58,27,30.29,30.20,4,2,10,0.00
2013-12-27,59.3,51.1,42.0,46.0,37.0,24.0,67,59,40,30.26,30.18,9,2,13,0.00
2013-12-28,57.8,48.3,39.7,45.0,30.2,-13.0,67,53,9,30.21,30.09,7,2,10,0.00
2013-12-29,63.8,52.2,43.8,42.0,34.8,27.0,65,53,35,30.21,30.12,13,2,16,0.00
2013-12-30,60.7,51.3,40.9,46.0,21.3,-99.9,73,48,4,30.30,30.20,7,2,11,0.00
2013-12-31,55.2,48.6,43.8,44.0,2.2,-99.9,97,28,1,30.33,30.23,8,2,10,0.00
2014-1-1,55.1,45.9,37.5,40.0,-3.6,-202.0,61,32,5,30.26,30.19,7,1,10,0.00
2014-1-2,58.1,47.5,40.5,45.0,-27.5,-202.0,64,21,5,30.23,30.11,6,1,9,0.01